| time (UTC) | temp F | wind direction | speed MPH | gust MPH | rain 1hr in | rain 24hr in | rain mn in | humidity % | barometer mb |
| 20260506095628 | 33 | 223 | 0.0 | 0.0 | 0.00 | 0.60 | 0.03 | 85 | 1015.4 |
| 20260506094647 | 34 | 214 | 0.0 | 1.0 | 0.00 | 0.60 | 0.03 | 84 | 1015.5 |
| 20260506093623 | 34 | 165 | 0.0 | 4.0 | 0.00 | 0.60 | 0.03 | 83 | 1015.5 |
| 20260506092622 | 34 | 157 | 0.0 | 3.0 | 0.00 | 0.60 | 0.03 | 85 | 1015.4 |
| 20260506091625 | 34 | 157 | 0.0 | 4.0 | 0.00 | 0.60 | 0.03 | 86 | 1015.2 |
| 20260506090644 | 34 | 163 | 0.0 | 8.0 | 0.01 | 0.60 | 0.03 | 88 | 1015.4 |
| 20260506085623 | 33 | 186 | 2.0 | 15.0 | 0.01 | 0.60 | 0.03 | 90 | 1015.2 |
| 20260506084622 | 33 | 217 | 5.0 | 11.0 | 0.01 | 0.60 | 0.03 | 91 | 1015.3 |
| 20260506083622 | 33 | 211 | 4.0 | 18.0 | 0.01 | 0.60 | 0.03 | 92 | 1015.5 |
| 20260506082623 | 33 | 207 | 4.0 | 17.0 | 0.01 | 0.60 | 0.03 | 92 | 1015.6 |
| 20260506081623 | 33 | 211 | 6.0 | 17.0 | 0.01 | 0.60 | 0.03 | 92 | 1015.6 |
| 20260506080622 | 33 | 207 | 4.0 | 14.0 | 0.00 | 0.59 | 0.02 | 92 | 1016.0 |
| 20260506072657 | 34 | 142 | 1.0 | 7.0 | 0.02 | 0.61 | 0.02 | 90 | 1016.4 |
| 20260506071634 | 34 | 132 | 2.0 | 11.0 | 0.02 | 0.61 | 0.02 | 90 | 1016.1 |
| 20260506070635 | 34 | 207 | 2.0 | 11.0 | 0.01 | 0.60 | 0.01 | 90 | 1015.9 |
| 20260506061624 | 38 | 104 | 3.0 | 27.0 | 0.00 | 0.59 | 0.00 | 82 | 1014.5 |
| 20260506060632 | 38 | 113 | 8.0 | 27.0 | 0.00 | 0.59 | 0.00 | 78 | 1014.6 |
| 20260506050625 | 41 | 96 | 17.0 | 31.0 | 0.00 | 0.59 | 0.59 | 75 | 1012.0 |
| 20260506044621 | 44 | 91 | 17.0 | 32.0 | 0.00 | 0.59 | 0.59 | 76 | 1010.9 |
| 20260506043641 | 46 | 102 | 10.0 | 25.0 | 0.00 | 0.59 | 0.59 | 71 | 1010.6 |
| 20260506042622 | 49 | 286 | 0.0 | 0.0 | 0.00 | 0.59 | 0.59 | 58 | 1009.8 |
| 20260506041623 | 48 | 300 | 0.0 | 0.0 | 0.00 | 0.59 | 0.59 | 64 | 1009.7 |
| 20260506040621 | 48 | 276 | 0.0 | 0.0 | 0.00 | 0.59 | 0.59 | 66 | 1009.6 |
| 20260506035640 | 48 | 259 | 0.0 | 1.0 | 0.00 | 0.59 | 0.59 | 65 | 1009.4 |
| 20260506034616 | 48 | 261 | 0.0 | 1.0 | 0.00 | 0.59 | 0.59 | 66 | 1009.2 |
| 20260506033620 | 50 | 267 | 0.0 | 1.0 | 0.00 | 0.59 | 0.59 | 61 | 1009.1 |
| 20260506032637 | 52 | 286 | 0.0 | 5.0 | 0.00 | 0.59 | 0.59 | 48 | 1008.9 |
| 20260506031653 | 50 | 286 | 1.0 | 6.0 | 0.00 | 0.59 | 0.59 | 63 | 1008.9 |
| 20260506030630 | 50 | 288 | 0.0 | 0.0 | 0.00 | 0.59 | 0.59 | 60 | 1008.5 |
| 20260506025630 | 49 | 299 | 0.0 | 0.0 | 0.00 | 0.59 | 0.59 | 60 | 1008.4 |
| 20260506024651 | 48 | 266 | 0.0 | 1.0 | 0.00 | 0.59 | 0.59 | 62 | 1008.3 |
| 20260506023632 | 49 | 265 | 0.0 | 1.0 | 0.00 | 0.59 | 0.59 | 59 | 1008.2 |
| 20260506022631 | 50 | 268 | 0.0 | 0.0 | 0.00 | 0.59 | 0.59 | 54 | 1008.0 |
| 20260506021628 | 52 | 273 | 0.0 | 0.0 | 0.00 | 0.59 | 0.59 | 43 | 1007.9 |
| 20260506020627 | 53 | 340 | 0.0 | 4.0 | 0.00 | 0.59 | 0.59 | 39 | 1007.6 |
| 20260506015625 | 53 | 26 | 0.0 | 8.0 | 0.00 | 0.59 | 0.59 | 41 | 1007.6 |
| 20260506014629 | 54 | 355 | 1.0 | 12.0 | 0.00 | 0.59 | 0.59 | 49 | 1007.5 |
| 20260506013626 | 55 | 348 | 6.0 | 12.0 | 0.00 | 0.59 | 0.59 | 47 | 1007.5 |
| 20260506012626 | 55 | 336 | 1.0 | 15.0 | 0.00 | 0.59 | 0.59 | 40 | 1007.4 |
| 20260506011625 | 56 | 5 | 7.0 | 17.0 | 0.00 | 0.59 | 0.59 | 52 | 1007.4 |
| 20260506010628 | 56 | 360 | 8.0 | 18.0 | 0.00 | 0.59 | 0.59 | 50 | 1007.3 |
| 20260506005647 | 56 | 355 | 9.0 | 13.0 | 0.00 | 0.59 | 0.59 | 50 | 1007.3 |
| 20260506004623 | 57 | 9 | 8.0 | 16.0 | 0.00 | 0.59 | 0.59 | 50 | 1007.3 |
| 20260506003624 | 56 | 19 | 0.0 | 11.0 | 0.00 | 0.59 | 0.59 | 43 | 1007.1 |
| 20260506002623 | 56 | 11 | 0.0 | 5.0 | 0.00 | 0.59 | 0.59 | 43 | 1007.0 |
| 20260506001625 | 55 | 345 | 0.0 | 2.0 | 0.00 | 0.59 | 0.59 | 43 | 1007.1 |
| 20260506000634 | 56 | 28 | 0.0 | 0.0 | 0.00 | 0.59 | 0.59 | 55 | 1007.1 |
| 20260505235635 | 54 | 38 | 0.0 | 10.0 | 0.00 | 0.59 | 0.59 | 60 | 1007.0 |
| 20260505234635 | 53 | 66 | 0.0 | 2.0 | 0.00 | 0.59 | 0.59 | 62 | 1007.0 |
| 20260505233633 | 54 | 76 | 1.0 | 3.0 | 0.00 | 0.59 | 0.59 | 66 | 1007.0 |
| 20260505232616 | 54 | 57 | 0.0 | 1.0 | 0.00 | 0.59 | 0.59 | 59 | 1006.8 |
| 20260505231635 | 53 | 27 | 0.0 | 0.0 | 0.00 | 0.59 | 0.59 | 61 | 1006.8 |
| 20260505230651 | 54 | 69 | 0.0 | 1.0 | 0.00 | 0.59 | 0.59 | 56 | 1006.9 |
| 20260505225630 | 53 | 79 | 0.0 | 1.0 | 0.00 | 0.59 | 0.59 | 65 | 1006.9 |
| 20260505224629 | 51 | 121 | 0.0 | 2.0 | 0.00 | 0.59 | 0.59 | 71 | 1006.9 |
| 20260505223629 | 51 | 117 | 0.0 | 4.0 | 0.00 | 0.59 | 0.59 | 70 | 1007.0 |
| 20260505222651 | 50 | 109 | 0.0 | 6.0 | 0.00 | 0.59 | 0.59 | 76 | 1007.2 |
| 20260505221630 | 50 | 103 | 1.0 | 3.0 | 0.00 | 0.59 | 0.59 | 76 | 1007.1 |
| 20260505220632 | 50 | 114 | 2.0 | 6.0 | 0.00 | 0.59 | 0.59 | 73 | 1007.3 |
| 20260505215648 | 50 | 103 | 2.0 | 4.0 | 0.00 | 0.59 | 0.59 | 74 | 1007.5 |
| 20260505214626 | 49 | 116 | 3.0 | 6.0 | 0.00 | 0.59 | 0.59 | 74 | 1007.7 |
| 20260505213628 | 49 | 115 | 3.0 | 7.0 | 0.00 | 0.59 | 0.59 | 74 | 1007.9 |
| 20260505212647 | 49 | 113 | 1.0 | 4.0 | 0.00 | 0.59 | 0.59 | 75 | 1008.2 |
| 20260505211625 | 48 | 115 | 1.0 | 7.0 | 0.00 | 0.59 | 0.59 | 74 | 1008.4 |
| 20260505210624 | 48 | 112 | 1.0 | 6.0 | 0.00 | 0.59 | 0.59 | 75 | 1008.4 |
| 20260505205625 | 48 | 115 | 1.0 | 3.0 | 0.00 | 0.59 | 0.59 | 76 | 1008.6 |
| 20260505204629 | 47 | 112 | 1.0 | 7.0 | 0.00 | 0.59 | 0.59 | 75 | 1008.8 |
| 20260505203629 | 47 | 115 | 2.0 | 6.0 | 0.00 | 0.59 | 0.59 | 76 | 1008.9 |
| 20260505202629 | 47 | 113 | 3.0 | 7.0 | 0.00 | 0.59 | 0.59 | 76 | 1009.2 |
| 20260505201626 | 46 | 114 | 2.0 | 10.0 | 0.00 | 0.59 | 0.59 | 78 | 1009.2 |
| 20260505200623 | 46 | 123 | 4.0 | 12.0 | 0.00 | 0.59 | 0.59 | 78 | 1009.2 |
| 20260505195627 | 46 | 112 | 3.0 | 11.0 | 0.00 | 0.59 | 0.59 | 78 | 1009.4 |
| 20260505194625 | 45 | 112 | 3.0 | 15.0 | 0.00 | 0.59 | 0.59 | 78 | 1009.4 |
| 20260505193623 | 45 | 117 | 6.0 | 15.0 | 0.00 | 0.59 | 0.59 | 79 | 1009.6 |
| 20260505192623 | 44 | 131 | 1.0 | 15.0 | 0.00 | 0.59 | 0.59 | 80 | 1009.8 |
| 20260505191627 | 44 | 114 | 12.0 | 16.0 | 0.00 | 0.59 | 0.59 | 81 | 1009.9 |
| 20260505190625 | 44 | 136 | 12.0 | 18.0 | 0.00 | 0.59 | 0.59 | 82 | 1009.9 |
| 20260505185623 | 44 | 117 | 12.0 | 15.0 | 0.00 | 0.59 | 0.59 | 80 | 1010.1 |
| 20260505184641 | 44 | 126 | 9.0 | 12.0 | 0.00 | 0.59 | 0.59 | 79 | 1010.0 |
| 20260505183617 | 44 | 131 | 5.0 | 13.0 | 0.00 | 0.59 | 0.59 | 80 | 1010.1 |
| 20260505182631 | 43 | 119 | 4.0 | 11.0 | 0.00 | 0.59 | 0.59 | 81 | 1010.2 |
| 20260505181624 | 42 | 130 | 7.0 | 11.0 | 0.00 | 0.59 | 0.59 | 82 | 1010.3 |
| 20260505180631 | 42 | 137 | 8.0 | 12.0 | 0.00 | 0.59 | 0.59 | 82 | 1010.4 |
| 20260505175651 | 42 | 135 | 6.0 | 15.0 | 0.00 | 0.59 | 0.59 | 82 | 1010.5 |
| 20260505174627 | 41 | 152 | 5.0 | 9.0 | 0.00 | 0.59 | 0.59 | 83 | 1010.5 |
| 20260505173645 | 41 | 145 | 3.0 | 14.0 | 0.00 | 0.59 | 0.59 | 84 | 1010.7 |
| 20260505172622 | 41 | 124 | 7.0 | 16.0 | 0.00 | 0.59 | 0.59 | 83 | 1010.7 |
| 20260505171627 | 41 | 150 | 7.0 | 13.0 | 0.00 | 0.59 | 0.59 | 85 | 1010.6 |
| 20260505170625 | 40 | 156 | 3.0 | 12.0 | 0.00 | 0.59 | 0.59 | 86 | 1010.5 |
| 20260505165640 | 40 | 174 | 6.0 | 15.0 | 0.01 | 0.59 | 0.59 | 87 | 1010.4 |
| 20260505164617 | 40 | 183 | 7.0 | 13.0 | 0.02 | 0.59 | 0.59 | 84 | 1010.5 |
| 20260505163655 | 41 | 177 | 2.0 | 10.0 | 0.05 | 0.59 | 0.59 | 83 | 1010.5 |
| 20260505162632 | 40 | 179 | 1.0 | 6.0 | 0.09 | 0.59 | 0.59 | 84 | 1010.4 |
| 20260505161634 | 40 | 191 | 0.0 | 2.0 | 0.12 | 0.59 | 0.59 | 87 | 1010.5 |
| 20260505160632 | 40 | 210 | 0.0 | 0.0 | 0.14 | 0.59 | 0.59 | 87 | 1010.4 |
| 20260505152627 | 41 | 275 | 0.0 | 0.0 | 0.10 | 0.50 | 0.50 | 87 | 1010.6 |
| 20260505151626 | 41 | 276 | 0.0 | 0.0 | 0.08 | 0.47 | 0.47 | 88 | 1010.7 |
| 20260505150624 | 41 | 313 | 0.0 | 0.0 | 0.06 | 0.44 | 0.44 | 87 | 1010.6 |
| 20260505140644 | 44 | 115 | 0.0 | 0.0 | 0.12 | 0.38 | 0.38 | 88 | 1010.0 |
| 20260505124623 | 45 | 179 | 0.0 | 0.0 | 0.00 | 0.24 | 0.24 | 87 | 1008.8 |
| 20260505123621 | 46 | 179 | 0.0 | 1.0 | 0.02 | 0.24 | 0.24 | 85 | 1008.7 |
| 20260505122621 | 45 | 134 | 0.0 | 1.0 | 0.04 | 0.24 | 0.24 | 85 | 1008.6 |
| 20260505121618 | 45 | 115 | 0.0 | 0.0 | 0.05 | 0.24 | 0.24 | 85 | 1008.7 |
| 20260505120617 | 45 | 55 | 0.0 | 0.0 | 0.05 | 0.24 | 0.24 | 87 | 1008.8 |
| 20260505115634 | 45 | 355 | 0.0 | 0.0 | 0.06 | 0.24 | 0.24 | 88 | 1008.9 |
| 20260505114630 | 45 | 279 | 0.0 | 1.0 | 0.06 | 0.24 | 0.24 | 87 | 1008.8 |
| 20260505113628 | 45 | 286 | 0.0 | 0.0 | 0.04 | 0.22 | 0.22 | 86 | 1008.6 |
| 20260505112624 | 45 | 227 | 0.0 | 0.0 | 0.02 | 0.20 | 0.20 | 85 | 1008.6 |
| 20260505111624 | 45 | 223 | 0.0 | 0.0 | 0.01 | 0.19 | 0.19 | 86 | 1008.5 |
| 20260505110646 | 45 | 230 | 0.0 | 0.0 | 0.02 | 0.19 | 0.19 | 86 | 1008.6 |
| 20260505101617 | 46 | 210 | 0.0 | 0.0 | 0.16 | 0.18 | 0.18 | 85 | 1009.0 |
| 20260505100636 | 47 | 182 | 0.0 | 2.0 | 0.15 | 0.17 | 0.17 | 84 | 1009.1 |